TimeEDT,TemperatureF,Dew PointF,Humidity,Sea Level PressureIn,VisibilityMPH,Wind Direction,Wind SpeedMPH,Gust SpeedMPH,PrecipitationIn,Events,Conditions,WindDirDegrees,DateUTC
12:58 AM,68.2,45.0,43,30.05,10.0,SW,10.4,-,N/A,,Clear,220,2014-04-03 04:58:00
1:58 AM,64.9,46.6,51,30.04,10.0,SW,9.2,-,N/A,,Clear,230,2014-04-03 05:58:00
2:58 AM,62.1,47.8,60,30.04,10.0,WSW,6.9,-,N/A,,Clear,250,2014-04-03 06:58:00
3:58 AM,60.3,48.6,65,30.02,10.0,WSW,8.1,-,N/A,,Clear,250,2014-04-03 07:58:00
4:58 AM,59.7,48.6,67,30.02,10.0,WSW,8.1,-,N/A,,Clear,250,2014-04-03 08:58:00
5:58 AM,58.8,48.7,69,30.02,10.0,WSW,8.1,-,N/A,,Clear,250,2014-04-03 09:58:00
6:58 AM,58.1,48.2,70,30.03,10.0,WSW,6.9,-,N/A,,Clear,250,2014-04-03 10:58:00
7:58 AM,61.0,48.7,64,30.06,10.0,West,8.1,-,N/A,,Partly Cloudy,280,2014-04-03 11:58:00
8:58 AM,63.5,49.3,60,30.07,10.0,West,5.8,-,N/A,,Mostly Cloudy,260,2014-04-03 12:58:00
9:58 AM,67.6,48.6,50,30.07,10.0,WNW,6.9,-,N/A,,Partly Cloudy,290,2014-04-03 13:58:00
10:58 AM,68.7,48.2,48,30.07,10.0,West,4.6,-,N/A,,Mostly Cloudy,270,2014-04-03 14:58:00
11:55 AM,73.0,49.6,44,30.07,10.0,NNW,8.1,-,N/A,,Scattered Clouds,330,2014-04-03 15:55:00
11:58 AM,73.0,49.6,44,30.08,10.0,NNW,8.1,-,N/A,,Scattered Clouds,340,2014-04-03 15:58:00
12:55 PM,72.9,43.7,35,30.03,10.0,Calm,Calm,-,N/A,,Scattered Clouds,0,2014-04-03 16:55:00
1:58 PM,77.9,42.4,28,30.03,10.0,Variable,2.3,-,N/A,,Clear,0,2014-04-03 17:58:00
2:58 PM,80.2,45.1,29,29.99,10.0,Variable,5.8,-,N/A,,Clear,0,2014-04-03 18:58:00
3:58 PM,82.2,54.3,38,29.96,10.0,West,12.7,-,N/A,,Clear,260,2014-04-03 19:58:00
4:01 PM,82.4,55.4,39,29.95,10.0,SSW,12.7,-,N/A,,Clear,210,2014-04-03 20:01:00
4:58 PM,82.2,56.3,41,29.94,10.0,SW,11.5,17.3,N/A,,Clear,230,2014-04-03 20:58:00
5:58 PM,82.6,56.1,40,29.92,10.0,SSW,8.1,-,N/A,,Clear,210,2014-04-03 21:58:00
6:58 PM,82.0,44.8,27,29.93,10.0,SW,9.2,-,N/A,,Clear,220,2014-04-03 22:58:00
7:58 PM,78.6,44.8,30,29.93,10.0,SSW,11.5,-,N/A,,Clear,210,2014-04-03 23:58:00
8:58 PM,76.1,45.7,34,29.93,10.0,SSW,8.1,-,N/A,,Clear,210,2014-04-04 00:58:00
9:58 PM,74.7,45.9,36,29.93,10.0,SW,8.1,-,N/A,,Clear,220,2014-04-04 01:58:00
11:58 PM,70.7,53.6,55,29.92,10.0,SW,11.5,-,N/A,,Overcast,220,2014-04-04 03:58:00